Location: Gälforsberget
(66.6500°N, 22.4167°E)
Time: 07:49:31
(UTC+00:00)

Okean 2 Rocket - Pass Details

Date: 11 April 2026
Orbit: 612 x 633 km, 82.5° (Epoch: 9 May)

Event Time Altitude Azimuth Distance (km) Brightness Sun altitude
Exits shadow 22:20:20 24° 160° (SSE) 1,302 4.1 -14.7°
Maximum altitude 22:22:43 49° 97° (E) 815 3.6 -14.7°
Drops below altitude 10° 22:27:01 10° 23° (NNE) 2,016 6.8 -14.8°
Sets 22:29:19 0° 18° (NNE) 2,931 8.0 -14.8°
